metlocid,date_time,avg_rh,std_rh,min_rh,max_rh,n_rh,n_comments
VAAM,11/24/94,29.26999989,1.944823144,26.98,33.1,20,0
VAAM,11/25/94,23.87097218,3.477668254,20.5,36.23,72,0
VAAM,11/26/94,46.87861101,4.114407815,30.97,53.93,72,0
VAAM,11/27/94,45.15152772,5.236231337,35.75,55.44,72,0
VAAM,11/28/94,45.56208346,5.558171673,36.99,56.77,72,0
VAAM,11/29/94,45.79277791,6.02874148,36.26,56.19,72,0
VAAM,11/30/94,45.26180564,8.855786134,35.62,61.11,72,0
VAAM,12/1/94,36.30041658,5.997289393,29.95,48.48,72,0
VAAM,12/2/94,31.12652795,6.098707869,23.37,42.23,72,0
VAAM,12/3/94,30.11763893,5.555505707,21.6,42.12,72,0
VAAM,12/4/94,46.65305548,12.51957527,26.87,67,72,0
VAAM,12/5/94,32.21180566,6.495208156,22.6,45.41,72,0
VAAM,12/6/94,31.68152788,7.280928754,22.8,45.47,72,0
VAAM,12/7/94,24.9424999,1.53398095,21.2,28,72,0
VAAM,12/8/94,23.81000005,1.85667043,20.4,26.68,72,0
VAAM,12/9/94,22.69027774,1.349053884,20.7,25.42,72,0
VAAM,12/10/94,22.30944443,1.713467763,20.6,26.23,72,0
VAAM,12/11/94,22.88027769,5.17873226,19.5,46.39,72,0
VAAM,12/12/94,22.1297223,1.467414012,19.5,24.41,72,0
VAAM,12/13/94,26.51486108,10.67997791,19.1,48.76,72,0
VAAM,12/14/94,46.70458349,7.510025581,34.6,63.83,72,0
VAAM,12/15/94,59.55874999,8.479946948,40.2,71.52,72,0
VAAM,12/16/94,56.53097211,6.989186262,46.8,67.89,72,0
VAAM,12/17/94,68.61319457,18.43789697,51,99.99,72,4
VAAM,12/18/94,59.5998613,11.00135825,42.6,76.1,72,0
VAAM,12/19/94,35.76833314,15.54590141,21.3,67.12,72,0
VAAM,12/20/94,36.28430555,11.68515216,21.7,64.14,72,0
VAAM,12/21/94,51.30777778,3.823472093,46.87,60.98,72,0
VAAM,12/22/94,42.41833327,12.49803938,21.6,55.24,72,0
VAAM,12/23/94,52.7902779,6.369833693,43.85,63.09,72,0
VAAM,12/24/94,39.22874991,7.126434241,25.89,48.58,72,0
VAAM,12/25/94,39.16208328,8.879561077,21.6,50.93,72,0
VAAM,12/26/94,35.65041659,12.6355465,23.16,60.08,72,0
VAAM,12/27/94,22.42361111,1.320180661,20.6,25.19,72,0
VAAM,12/28/94,24.58111103,1.902887748,22,30.61,72,0
VAAM,12/29/94,25.33652764,3.321860715,20.4,33.17,72,0
VAAM,12/30/94,27.82285731,6.392370713,20.2,39.78,56,0
VAAM,12/31/94,45.91375033,3.440555517,39.2,52.85,24,0
VAAM,1/1/95,37.06041646,13.94103143,20.8,59.38,24,0
VAAM,1/2/95,43.63083347,3.664625318,36.7,54.49,24,0
VAAM,1/3/95,60.21958319,5.283074607,52.58,68.9,24,0
VAAM,1/4/95,49.03124968,8.215961029,38.1,61.98,24,0
VAAM,1/5/95,38.65833314,6.433793513,26.9,49.03,24,0
VAAM,1/6/95,52.14708296,1.50980958,49.14,54.92,24,0
VAAM,1/7/95,43.98333295,11.80323469,30.3,59.78,24,0
VAAM,1/8/95,26.6633331,3.615109075,21.2,34.16,24,0
VAAM,1/9/95,24.28416642,0.876172078,23.2,25.81,24,0
VAAM,1/10/95,25.24041677,0.750648785,24.2,26.6,24,0
VAAM,1/11/95,32.58333325,9.977724605,20.1,49.1,24,0
VAAM,1/12/95,55.67750025,3.389266003,48.3,60.78,24,0
VAAM,1/13/95,55.20791626,3.745765277,46.6,60.66,24,0
VAAM,1/14/95,47.3033332,15.08338501,27.1,69.96,24,0
VAAM,1/15/95,42.46458324,10.44888791,22.9,53.16,24,0
VAAM,1/16/95,40.1891667,12.44228001,26.7,64.49,24,0
VAAM,1/17/95,29.56333319,4.374151857,22.9,37.18,24,0
VAAM,1/18/95,41.76750024,6.200353862,30.86,53.47,24,0
VAAM,1/19/95,40.33166671,12.78264396,23.6,54.75,24,0
VAAM,1/20/95,54.3747824,9.692446571,40.34,78.74,23,0
VAAM,1/21/95,33.29333321,13.73812545,20.52,55.46,24,0
VAAM,1/22/95,26.01583322,3.37312121,20.75,32.53,24,0
VAAM,1/23/95,37.94291671,9.546098656,24.86,51.17,24,0
VAAM,1/24/95,48.20291678,5.127848875,37.4,55.7,24,0
VAAM,1/25/95,40.8408335,16.96624991,22.04,67.24,24,0
VAAM,1/26/95,45.78958305,4.592489056,32.52,51.67,24,0
VAAM,1/27/95,41.0804166,12.39539341,23.06,58.6,24,0
VAAM,1/28/95,47.86666648,6.402199382,36.9,60.55,24,0
VAAM,1/29/95,45.24708335,18.20872089,24.74,71.68,24,0
VAAM,1/30/95,25.84083319,4.166221266,20.91,31.51,24,0
VAAM,1/31/95,27.28166676,4.606237009,20.89,38.33,24,0
VAAM,2/1/95,25.60291688,1.550423496,23.19,27.61,24,0
VAAM,2/2/95,22.7854166,0.675097341,21.76,24.74,24,0
VAAM,2/3/95,26.45791666,5.307149184,23.25,41.8,24,0
VAAM,2/4/95,32.44499993,8.205549804,23.69,44.69,24,0
VAAM,2/5/95,27.72833339,1.146820682,25.47,31.79,24,0
VAAM,2/6/95,27.88833316,2.326773625,25.17,33.53,24,0
VAAM,2/7/95,31.7704169,7.102652354,21.12,49.99,24,0
VAAM,2/8/95,34.70500008,12.79302987,21.28,55.87,24,0
VAAM,2/9/95,27.44833326,2.62471963,23.92,33.91,24,0
VAAM,2/10/95,42.88416672,5.203332103,35.18,52.55,24,0
VAAM,2/11/95,30.69083349,7.283422172,22.83,49.05,24,0
VAAM,2/12/95,47.14583341,13.61412875,30.15,66.2,24,0
VAAM,2/13/95,33.23374979,6.398078262,23.74,46,24,0
VAAM,2/14/95,46.4825,10.01447789,25.09,57.12,24,0
VAAM,2/15/95,50.16124996,10.33970297,31.09,61.06,24,0
VAAM,2/16/95,46.71666686,6.79703375,36.5,56.77,24,0
VAAM,2/17/95,49.03416665,4.33956497,42.21,55.42,24,0
VAAM,2/18/95,30.84374968,6.302491,26.09,49.35,24,0
VAAM,2/19/95,31.23624992,5.942323595,24.21,43.24,24,0
VAAM,2/20/95,32.41541696,4.490515818,26.37,44.88,24,0
VAAM,2/21/95,28.73416686,3.150342597,22.36,35.03,24,0
VAAM,2/22/95,38.2750001,15.57451739,21.82,65.61,24,0
VAAM,2/23/95,67.60666609,8.426658008,54.67,82.59,24,0
VAAM,2/24/95,55.91583339,16.96562703,25.68,78.11,24,0
VAAM,2/25/95,69.31833267,7.600544204,52.51,78.33,24,0
VAAM,2/26/95,44.69166621,12.02506979,30.51,76.95,24,0
VAAM,2/27/95,92.39000066,1.514647838,87.63,94.4,24,0
VAAM,2/28/95,93.80000019,2.167962399,88.72,97.08,24,0
VAAM,3/1/95,87.07500045,15.96368315,53.2,96.93,24,0
VAAM,3/2/95,56.29541651,9.035711012,42.31,72.21,24,0
VAAM,3/3/95,72.08458296,4.246349438,65.92,76.78,24,0
VAAM,3/4/95,78.09874948,2.554992021,74.05,82.21,24,0
VAAM,3/5/95,62.29500008,25.83763521,30.24,86.31,24,0
VAAM,3/6/95,42.1187501,5.733262106,35.19,56.68,24,0
VAAM,3/7/95,50.16791709,7.351220511,39.06,66.44,24,0
VAAM,3/8/95,70.00166607,3.692951776,64.2,80.78,24,0
VAAM,3/9/95,86.98833338,3.638959938,80.7,92.54,24,0
VAAM,3/10/95,89.05541674,4.60028588,76.98,92.48,24,0
VAAM,3/11/95,47.62083348,11.96754011,30.05,72.79,24,0
VAAM,3/12/95,58.20250026,15.67681677,30.76,84.84,24,0
VAAM,3/13/95,71.3016669,3.255401721,64.93,75.86,24,0
VAAM,3/14/95,78.00083288,1.350229763,75.28,80.1,24,0
VAAM,3/15/95,79.59833272,0.854979113,77.36,80.63,24,0
VAAM,3/16/95,72.2845842,6.961768218,60.02,81.27,24,0
VAAM,3/17/95,55.39833371,20.61498644,30,76.9,24,0
VAAM,3/18/95,53.35541662,20.03029362,31.06,82.47,24,0
VAAM,3/19/95,83.64000003,1.215780549,81.79,85.99,24,0
VAAM,3/20/95,82.79958344,0.631075219,81.83,84.25,24,0
VAAM,3/21/95,83.67124939,0.392110813,83.04,84.39,24,0
VAAM,3/22/95,83.20666631,0.741599794,82.16,84.41,24,0
VAAM,3/23/95,84.31958326,0.278528121,83.61,84.74,24,0
VAAM,3/24/95,84.40749995,0.211624697,84.07,84.73,24,0
VAAM,3/25/95,82.9087499,0.619770319,82.2,84.2,24,0
VAAM,3/26/95,80.11583328,2.51289919,76.13,82.5,24,0
VAAM,3/27/95,80.45041625,0.54654225,79.05,81.24,24,0
VAAM,3/28/95,80.59541702,0.513792155,79.72,81.61,24,0
VAAM,3/29/95,82.90958341,0.738344252,81.63,84.21,24,0
VAAM,3/30/95,84.26375071,0.291469663,83.86,84.89,24,0
VAAM,3/31/95,84.54208406,0.415273789,83.13,84.97,24,0
VAAM,4/1/95,65.8058335,8.944157846,50.44,78.1,24,0
VAAM,4/2/95,78.57083321,0.413668249,77.84,79.16,24,0
VAAM,4/3/95,79.50916704,1.147411809,77.83,81.14,24,0
VAAM,4/4/95,80.05916659,0.781330608,79.04,81.21,24,0
VAAM,4/5/95,78.74875005,0.364921794,78.23,79.47,24,0
VAAM,4/6/95,78.79958375,0.206365237,78.44,79.22,24,0
VAAM,4/7/95,68.05916739,13.78293513,45.56,78.37,24,0
VAAM,4/8/95,63.56000058,10.3958368,46.8,74.62,24,0
VAAM,4/9/95,74.37625027,0.383336386,73.76,74.95,24,0
VAAM,4/10/95,67.17416628,16.59311045,31.33,85.13,24,0
VAAM,4/11/95,86.72333304,1.203767719,85.29,89.1,24,0
VAAM,4/12/95,84.79916604,0.302768796,84.35,85.3,24,0
VAAM,4/13/95,75.62083324,15.51321356,43.24,84.68,24,0
VAAM,4/14/95,52.86958345,18.58526995,35.05,85.85,24,0
VAAM,4/15/95,89.05333328,1.110052291,86.78,91.48,24,0
VAAM,4/16/95,87.66499933,0.942129624,86.67,90.24,24,0
VAAM,4/17/95,47.13375044,16.29918538,30.02,85.34,24,0
VAAM,4/18/95,80.98916658,1.658307256,76.67,83.1,24,0
VAAM,4/19/95,83.5508337,0.399193247,82.73,84.07,24,0
VAAM,4/20/95,52.06541634,21.20942338,33.39,82.63,24,0
VAAM,4/21/95,55.87583335,19.48202862,31.53,78.08,24,0
VAAM,4/22/95,83.92958323,0.811651645,81.2,84.8,24,0
VAAM,4/23/95,83.45041688,1.066805139,81.36,84.73,24,0
VAAM,4/24/95,77.75249958,3.601363697,66.72,82.53,24,0
VAAM,4/25/95,76.41875076,1.262744888,74.67,78.13,24,0
VAAM,4/26/95,55.39458291,12.37756317,39.58,76.59,24,0
VAAM,4/27/95,41.51833344,7.102763003,34.87,60.41,24,0
VAAM,4/28/95,71.76208305,6.526024954,64.26,81.29,24,0
VAAM,4/29/95,78.99041653,1.157866971,77.2,80.85,24,0
VAAM,4/30/95,67.09791597,16.9102081,35.41,78.46,24,0
VAAM,5/1/95,65.23833354,8.858572806,46.61,74.11,24,0
VAAM,5/2/95,74.35624981,0.334843682,73.63,75.08,24,0
VAAM,5/3/95,73.03499985,0.987944316,71.79,74.74,24,0
VAAM,5/4/95,72.01916726,0.413614557,71.5,73.31,24,0
VAAM,5/5/95,53.68124978,18.40017452,33.33,73.77,24,0
VAAM,5/6/95,31.59374992,4.491921837,27.74,50.3,24,0
VAAM,5/7/95,35.33999991,4.690549778,31.7,50.41,24,0
VAAM,5/8/95,70.93541702,4.556377064,56.58,74.43,24,0
VAAM,5/9/95,75.65833346,1.093394321,73.77,77.09,24,0
VAAM,5/10/95,77.5920833,0.361205268,76.9,78.13,24,0
VAAM,5/11/95,80.91875045,1.909819456,77.95,82.95,24,0
VAAM,5/12/95,82.82208347,0.143011139,82.45,83.08,24,0
VAAM,5/13/95,35.3416667,13.6019808,30.16,83.29,24,0
VAAM,5/14/95,31.89666677,0.533712634,30.85,32.92,24,0
VAAM,5/15/95,54.32208355,18.16436807,30.28,84.32,24,0
VAAM,5/16/95,85.6299998,0.572203546,84.71,86.54,24,0
VAAM,5/17/95,85.44083341,0.25899305,84.8,85.71,24,0
VAAM,5/18/95,84.8191665,0.263322289,84.22,85.21,24,0
VAAM,5/19/95,75.31083425,15.71408589,42.06,84.44,24,0
VAAM,5/20/95,44.57124996,8.631887502,36.9,59.88,24,0
VAAM,5/21/95,64.02374983,2.462729849,60.24,68.56,24,0
VAAM,5/22/95,66.48749955,1.167391809,64.42,68.27,24,0
VAAM,5/23/95,69.95708307,1.102773329,68.37,72.22,24,0
VAAM,5/24/95,74.15291659,0.53800368,72.64,74.97,24,0
VAAM,5/25/95,58.45624948,17.650346,29.76,73.44,24,0
VAAM,5/26/95,55.91166687,20.36884762,28.31,79.41,24,0
VAAM,5/27/95,81.28708394,0.489013843,80,82.01,24,0
VAAM,5/28/95,81.03708331,1.484345697,77.99,82.88,24,0
VAAM,5/29/95,80.98875014,1.229829872,79.46,82.92,24,0
VAAM,5/30/95,78.99750042,1.031820836,76.82,80.44,24,0
VAAM,5/31/95,74.92875036,0.947487153,73.65,76.71,24,0
VAAM,6/1/95,73.04124991,0.386695951,72.52,73.69,24,0
VAAM,6/2/95,72.09666697,0.211242161,71.83,72.5,24,0
VAAM,6/3/95,71.67083359,0.143887463,71.43,71.97,24,0
VAAM,6/4/95,67.82250023,11.01895883,39.16,76.13,24,0
VAAM,6/5/95,33.15375018,3.34133261,30.33,41.2,24,0
VAAM,6/6/95,65.49999976,14.30295057,30.5,78.83,24,0
VAAM,6/7/95,77.89791584,3.348484564,69.58,81.43,24,0
VAAM,6/8/95,79.84999975,1.16421601,77.75,81.23,24,0
VAAM,6/9/95,76.22166665,0.600193127,75.61,77.97,24,0
VAAM,6/10/95,32.12166635,9.975443603,28.57,76.99,24,0
VAAM,6/11/95,30.29666662,0.968542767,28.84,32.14,24,0
VAAM,6/12/95,51.09333316,11.53845107,30.76,68.75,24,0
VAAM,6/13/95,38.16666667,3.019911727,33.06,41.98,24,0
VAAM,6/14/95,49.69916725,18.31532549,30.72,77.41,24,0
VAAM,6/15/95,78.20708338,0.866033708,76.07,79.17,24,0
VAAM,6/16/95,35.59083335,12.06993207,28.4,74.56,24,0
VAAM,6/17/95,65.9749999,15.37076475,34.5,79.47,24,0
VAAM,6/18/95,81.44458326,0.534310403,79.95,82.23,24,0
VAAM,6/19/95,79.05416616,1.35457316,76.63,81.02,24,0
VAAM,6/20/95,70.06916714,5.621988157,62.07,77.34,24,0
VAAM,6/21/95,69.95416673,0.940346515,68.78,71.99,24,0
VAAM,6/22/95,44.34291649,15.24699698,33.7,71.95,24,0
VAAM,6/23/95,43.60958322,13.66288884,33.4,76.99,24,0
VAAM,6/24/95,49.53791666,9.284227101,34.41,62.42,24,0
VAAM,6/25/95,37.0895834,7.542702232,31.86,62.79,24,0
VAAM,6/26/95,32.8591667,3.226037828,29.89,44,24,0
VAAM,6/27/95,47.22291676,12.63037331,34,67.36,24,0
VAAM,6/28/95,52.31416718,16.05559284,34.37,68.93,24,0
VAAM,6/29/95,39.95625003,14.88929358,25.75,66.91,24,0
VAAM,6/30/95,27.20166659,0.965017163,25.18,29.76,24,0
VAAM,7/1/95,36.98125005,20.94720369,26.67,85.74,24,0
VAAM,7/2/95,64.00166718,17.49144795,38.96,82.98,24,0
VAAM,7/3/95,63.2937506,9.999916268,42.13,71.94,24,0
VAAM,7/4/95,36.97291684,12.55809832,29.97,70.48,24,0
VAAM,7/5/95,43.27749983,12.25433481,32.08,69.78,24,0
VAAM,7/6/95,70.13041695,11.93317882,31.76,76.05,24,0
VAAM,7/7/95,44.90791631,17.15698181,27,72.02,24,0
VAAM,7/8/95,58.40333303,9.327691965,48.82,71.99,24,0
VAAM,7/9/95,54.91333381,20.51093172,30.53,73.73,24,0
VAAM,7/10/95,42.18166669,9.372811515,30.2,59.04,24,0
VAAM,7/11/95,71.92208274,8.473850014,56.85,80.02,24,0
VAAM,7/12/95,75.05624994,5.519306156,62.67,79.95,24,0
VAAM,7/13/95,78.56666724,2.73174032,66.36,79.85,24,0
VAAM,7/14/95,55.1137503,14.76661734,35.09,72.55,24,0
VAAM,7/15/95,73.89291732,0.713926444,72.54,74.86,24,0
VAAM,7/16/95,70.1391662,1.162324865,68.53,72.45,24,0
VAAM,7/17/95,68.19041634,0.384068959,67.71,68.71,24,0
VAAM,7/18/95,59.75208418,15.48159125,29.5,69.55,24,0
VAAM,7/19/95,43.41708342,13.64706459,27.33,60.1,24,0
VAAM,7/20/95,39.90416654,9.353652387,29.99,54.05,24,0
VAAM,7/21/95,39.52375015,7.10000628,32.09,49.59,24,0
VAAM,7/22/95,37.04791689,4.01072369,33.34,46.68,24,0
VAAM,7/23/95,55.02041721,4.635438551,45.7,63.95,24,0
VAAM,7/24/95,71.82500013,6.183283854,62.39,77.73,24,0
VAAM,7/25/95,67.10791651,2.54795574,63.05,70.42,24,0
VAAM,7/26/95,66.31291628,6.461906712,50.55,70.32,24,0
VAAM,7/27/95,47.2475001,8.348308571,33.18,59.48,24,0
VAAM,7/28/95,42.15208356,5.993182329,36.13,53.44,24,0
VAAM,7/29/95,60.64083338,2.839987544,54.34,64.48,24,0
VAAM,7/30/95,66.84291681,1.437771081,64.58,68.94,24,0
VAAM,7/31/95,70.61833382,2.476619678,67.29,74.28,24,0
VAAM,8/1/95,64.73041654,18.17359908,28.94,74.95,24,0
VAAM,8/2/95,32.53666703,9.879737767,27.09,58.81,24,0
VAAM,8/3/95,54.85833279,17.87481454,29.24,74.99,24,0
VAAM,8/4/95,33.8174998,4.533562807,29.06,42.03,24,0
VAAM,8/5/95,33.68416659,1.011889873,32.04,35.08,24,0
VAAM,8/6/95,32.88291677,0.416992083,32.08,33.71,24,0
VAAM,8/7/95,41.40333303,8.815287586,31.72,58.5,24,0
VAAM,8/8/95,68.28041649,3.721497376,60.43,71.92,24,0
VAAM,8/9/95,70.44249948,0.720592683,68.83,71.49,24,0
VAAM,8/10/95,54.72250032,14.74723731,36.88,69.81,24,0
VAAM,8/11/95,38.52249988,1.889953084,35.96,42.6,24,0
VAAM,8/12/95,62.75291665,8.589590073,40.11,68.69,24,0
VAAM,8/13/95,68.14749908,0.817941137,66.31,69.42,24,0
VAAM,8/14/95,37.29041664,5.591724949,31.97,59.75,24,0
VAAM,8/15/95,31.63499991,5.441112427,27.68,49.07,24,0
VAAM,8/16/95,30.96458308,5.139707242,27.64,48.52,24,0
VAAM,8/17/95,52.60625013,7.537571663,40.41,64.48,24,0
VAAM,8/18/95,71.45791674,3.484717298,63.66,76.18,24,0
VAAM,8/19/95,75.08500036,1.22493359,73.09,76.71,24,0
VAAM,8/20/95,73.02208392,0.221771864,72.71,73.55,24,0
VAAM,8/21/95,76.47000027,0.903640003,73.99,77.51,24,0
VAAM,8/22/95,45.26416667,16.93062296,33.95,77.09,24,0
VAAM,8/23/95,51.03541676,12.47628708,32.66,65.06,24,0
VAAM,8/24/95,72.88333321,3.849400345,64.86,78.01,24,0
VAAM,8/25/95,78.28416729,0.412930937,77.15,78.78,24,0
VAAM,8/26/95,76.14125125,1.011023323,74.4,77.9,24,0
VAAM,8/27/95,48.45374982,19.60519177,31.01,74.61,24,0
VAAM,8/28/95,59.33833297,6.118286949,49.87,66.7,24,0
VAAM,8/29/95,69.06041686,1.127654235,67.39,70.95,24,0
VAAM,8/30/95,66.47291629,0.518932027,65.71,67.38,24,0
VAAM,8/31/95,65.59916592,0.193027853,65.25,65.84,24,0
VAAM,9/1/95,65.44541677,0.380662248,64.66,66.06,24,0
VAAM,9/2/95,65.81041654,0.949308148,64.72,69.13,24,0
VAAM,9/3/95,70.88083331,0.418951711,70.11,71.53,24,0
VAAM,9/4/95,71.34416707,0.982378995,69.28,72.55,24,0
VAAM,9/5/95,68.11333275,0.471729023,67.68,69.19,24,0
VAAM,9/6/95,67.66250006,0.10083355,67.47,67.79,24,0
VAAM,9/7/95,67.26416651,0.54027305,66.18,67.82,24,0
VAAM,9/8/95,67.43208281,0.672477415,66.2,68.31,24,0
VAAM,9/9/95,67.19583289,0.498631725,66.53,68.03,24,0
VAAM,9/10/95,66.68083254,0.152768699,66.47,67,24,0
VAAM,9/11/95,66.8700002,0.142371232,66.61,67.16,24,0
VAAM,9/12/95,67.25166702,0.147610135,67.01,67.48,24,0
VAAM,9/13/95,67.1387488,0.844157712,66.43,69.19,24,0
VAAM,9/14/95,65.9037501,8.688595027,44.45,73.02,24,0
VAAM,9/15/95,37.08833313,2.492248125,34.48,44.46,24,0
VAAM,9/16/95,34.55916635,1.326125221,31.83,37.09,24,0
VAAM,9/17/95,29.5066669,1.810697077,26.83,32.46,24,0
VAAM,9/18/95,28.02708348,0.397694124,27.51,28.78,24,0
VAAM,9/19/95,50.65666676,10.87871676,30.8,62.97,24,0
VAAM,9/20/95,41.45458309,17.46605813,28.2,72.06,24,0
VAAM,9/21/95,78.17958291,1.255213369,74.15,79.29,24,0
VAAM,9/22/95,77.80041695,0.481117373,77.19,78.86,24,0
VAAM,9/23/95,73.64875015,8.958395073,40.56,78.35,24,0
VAAM,9/24/95,44.19166668,16.04012645,27.5,62.9,24,0
VAAM,9/25/95,69.92833392,12.40306573,36.98,83.9,24,0
VAAM,9/26/95,47.65166656,21.97347793,30.86,80.19,24,0
VAAM,9/27/95,39.03375006,5.454665698,30.35,51.48,24,0
VAAM,9/28/95,57.32750066,11.95327536,32.07,68.19,24,0
VAAM,9/29/95,72.455417,3.804009285,61.11,77.87,24,0
VAAM,9/30/95,70.98000018,12.14294369,32.18,77.89,24,0
VAAM,10/1/95,31.57125004,4.410401183,26.81,47.04,24,0
VAAM,10/2/95,30.97666653,5.216448715,26.96,44.74,24,0
VAAM,10/3/95,43.79458324,12.1679117,25.5,62,24,0
VAAM,10/4/95,37.60166653,12.43442003,27.96,63.12,24,0
VAAM,10/5/95,33.82000033,0.449241068,33.06,34.56,24,0
VAAM,10/6/95,34.9087499,0.624717301,33.9,36.76,24,0
VAAM,10/7/95,43.30708377,2.347102518,37.58,46.87,24,0
VAAM,10/8/95,65.51250013,6.602473807,54.58,73.74,24,0
VAAM,10/9/95,45.28458357,5.454785825,37.31,56.75,24,0
VAAM,10/10/95,60.99291674,4.704909148,49.19,69.21,24,0
VAAM,10/11/95,71.48750067,7.777978302,59.5,80.7,24,0
VAAM,10/12/95,63.67458359,12.99062898,38.83,76.37,24,0
VAAM,10/13/95,58.08875004,4.343994841,47.46,66.67,24,0
VAAM,10/14/95,57.45999948,20.80924988,28.59,77.49,24,0
VAAM,10/15/95,33.9849999,6.425811307,28.96,53.57,24,0
VAAM,10/16/95,61.53291639,3.344984944,54.92,66.45,24,0
VAAM,10/17/95,67.73625008,5.850538809,59.48,76.49,24,0
VAAM,10/18/95,77.09791644,12.54338578,57.18,90.47,24,0
VAAM,10/19/95,81.51416747,8.352391541,62.72,91.76,24,0
VAAM,10/20/95,87.0824995,9.450174679,49.75,93.13,24,0
VAAM,10/21/95,54.32666604,13.2872424,37.04,70.81,24,0
VAAM,10/22/95,67.73208332,8.0340527,55.48,80.9,24,0
VAAM,10/23/95,65.64375051,8.249472344,50.02,77.27,24,0
VAAM,10/24/95,60.84624974,7.278296369,48.85,71.41,24,0
VAAM,10/25/95,51.69083373,6.457529807,38.71,60.75,24,0
VAAM,10/26/95,58.51041714,8.216151183,46.54,69.9,24,0
VAAM,10/27/95,48.82416646,6.646904239,39,59.51,24,0
VAAM,10/28/95,44.97000011,5.181576835,38.44,53.44,24,0
VAAM,10/29/95,47.10666656,6.715621978,37.5,59.13,24,0
VAAM,10/30/95,46.54791673,7.992600133,33.09,56.36,24,0
VAAM,10/31/95,42.71375012,7.044484294,29.99,52.01,24,0
VAAM,11/1/95,38.00791661,6.532190449,31.37,54.45,24,0
VAAM,11/2/95,30.25166647,4.885719679,25.29,38.58,24,0
VAAM,11/3/95,29.99749978,7.823996792,24.32,49.91,24,0
VAAM,11/4/95,31.15083337,5.298020864,24.93,42.39,24,0
VAAM,11/5/95,27.82375002,1.161171851,25.45,29.56,24,0
VAAM,11/6/95,32.43375039,5.330849325,26.11,43.04,24,0
VAAM,11/7/95,29.52166661,2.576333106,25.49,32.96,24,0
VAAM,11/8/95,29.36916677,2.040353514,26.53,36.34,24,0
VAAM,11/9/95,28.10208337,2.56105947,24.87,32.59,24,0
VAAM,11/10/95,33.99666651,9.45116791,25.78,53.44,24,0
VAAM,11/11/95,23.55791648,1.927235086,21.25,27.82,24,0
VAAM,11/12/95,22.02541677,0.517476919,20.81,22.89,24,0
VAAM,11/13/95,25.08749994,2.053800842,22.6,30.23,24,0
VAAM,11/14/95,24.28583344,1.995339849,21.54,29.01,24,0
VAAM,11/15/95,28.03874993,8.175988786,22.72,53.19,24,0
VAAM,11/16/95,24.47375003,2.824180793,21.41,34.53,24,0
VAAM,11/17/95,25.86541661,5.263518239,21.53,46.57,24,0
VAAM,11/18/95,28.99208315,4.406176274,24.64,37.67,24,0
VAAM,11/19/95,28.50333349,3.604945178,22.2,34.78,24,0
VAAM,11/20/95,28.6404167,4.245180849,25.16,36.83,24,0
VAAM,11/21/95,23.86709681,1.713510857,21.61,28.12,62,0
VAAM,11/22/95,22.45427078,0.898267063,21.1,24.52,96,0
VAAM,11/23/95,21.57843757,0.641292035,20.1,22.69,96,0
VAAM,11/24/95,22.07687511,0.723197995,19.83,23.82,96,0
VAAM,11/25/95,22.74375,2.933028282,19.4,32.8,96,0
VAAM,11/26/95,22.62677077,0.507234957,21.54,23.93,96,0
VAAM,11/27/95,23.02229162,1.691376032,20.96,26.15,96,0
VAAM,11/28/95,26.16760417,5.693802937,21.03,42.28,96,0
VAAM,11/29/95,26.68718743,6.329076139,21.4,46.78,96,0
VAAM,11/30/95,48.77718751,10.57418452,33.68,70.76,96,0
VAAM,12/1/95,34.89895842,15.34707033,20.98,62.32,96,0
VAAM,12/2/95,24.38520843,6.696718882,19.97,49.27,96,0
VAAM,12/3/95,24.06520836,5.407198909,20,47.53,96,0
VAAM,12/4/95,23.21104169,0.965797778,21.69,24.88,96,0
VAAM,12/5/95,24.29031243,3.944943878,22.05,46.29,96,0
VAAM,12/6/95,25.00770833,2.42265942,21.34,29.95,96,0
VAAM,12/7/95,24.37947919,1.817062003,21.33,28.33,96,0
VAAM,12/8/95,24.71354167,1.431840111,22.15,28.1,96,0
VAAM,12/9/95,22.36562498,1.943895614,20.09,26.07,96,0
VAAM,12/10/95,22.53333332,2.510707768,19.53,35.71,96,0
VAAM,12/11/95,38.82124982,18.22335739,20.62,66.72,96,0
VAAM,12/12/95,40.65052088,11.33118701,20.87,56.95,96,0
VAAM,12/13/95,56.35593732,16.72169743,38.29,90.24,96,0
VAAM,12/14/95,42.64906267,8.021211443,28.35,60.61,96,0
VAAM,12/15/95,32.2500001,7.105973425,21.26,45.32,96,0
VAAM,12/16/95,49.5796876,6.217147955,42.4,71.04,96,0
VAAM,12/17/95,50.47614559,5.183910779,40.72,59.55,96,0
VAAM,12/18/95,42.1461457,12.572601,23.91,61.85,96,0
VAAM,12/19/95,45.29874994,12.1918732,19.59,64.06,96,0
VAAM,12/20/95,41.35374999,10.20356726,28.22,60.69,96,0
VAAM,12/21/95,24.84562508,5.287668253,19.11,34.48,96,0
VAAM,12/22/95,22.18958336,1.912223748,19.81,28.81,96,0
VAAM,12/23/95,21.37093755,2.475765055,17.74,27.77,96,0
VAAM,12/24/95,20.62083336,1.644203704,18.49,25.45,96,0
VAAM,12/25/95,22.63802069,1.625407776,20.59,27.07,96,0
VAAM,12/26/95,32.29156252,8.210761954,26.07,66.88,96,0
VAAM,12/27/95,39.92562497,9.570459761,24.5,57.4,96,0
VAAM,12/28/95,45.1447916,9.66957202,29.07,62.29,96,0
VAAM,12/29/95,36.89312502,9.052392364,21.41,60.42,96,0
VAAM,12/30/95,60.05135419,20.42533305,29.02,90.49,96,0
VAAM,12/31/95,35.82697906,12.52153146,22.27,61.2,96,0
VAAM,1/1/96,37.37031253,8.261648701,26.34,53.3,96,0
VAAM,1/2/96,51.23104159,5.355365194,43.23,61.12,96,0
VAAM,1/3/96,50.58000016,2.932613987,46.03,55.84,96,0
VAAM,1/4/96,56.0689584,14.80062293,39.87,97.33,96,0
VAAM,1/5/96,41.69812493,12.02332123,22.23,58.45,96,0
VAAM,1/6/96,49.79281247,7.184682433,37.16,60.31,96,0
VAAM,1/7/96,30.17541679,6.186511806,23.19,45.47,96,0
VAAM,1/8/96,25.58249998,2.454297566,21.12,31.26,96,0
VAAM,1/9/96,37.40104153,11.91906832,24.72,68.69,96,0
VAAM,1/10/96,40.00916684,10.0534072,21.71,53.33,96,0
VAAM,1/11/96,25.13854176,4.301208732,19.58,36.68,96,0
VAAM,1/12/96,42.83541656,7.49366293,33.45,63.72,96,0
VAAM,1/13/96,53.83187521,7.455543176,44.75,72.48,96,0
VAAM,1/14/96,44.71624994,8.517037882,31.08,56,96,0
VAAM,1/15/96,61.28197916,19.95562649,34.59,98.92,96,0
VAAM,1/16/96,38.97031254,12.17163869,22.86,76.67,96,0
VAAM,1/17/96,35.31395831,8.556832962,21.94,55.6,96,0
VAAM,1/18/96,28.67718758,6.698051608,22.07,50.59,96,0
VAAM,1/19/96,45.68145806,13.08714977,24.03,78.46,96,0
VAAM,1/20/96,35.12770844,12.80276926,21.48,76.19,96,0
VAAM,1/21/96,41.29593756,10.15468947,23.14,59.97,96,0
VAAM,1/22/96,37.18885404,13.05104374,22.81,62.86,96,0
VAAM,1/23/96,25.79695646,7.878939868,20.58,49.06,92,0
VAAM,1/24/96,28.53260412,4.410533882,22.3,40.81,96,0
VAAM,1/25/96,24.31208336,4.935715582,19.9,36.83,96,0
VAAM,1/26/96,25.10562497,1.34114782,21.9,27.12,96,0
VAAM,1/27/96,30.53374998,11.31042386,21.9,58.41,96,0
VAAM,1/28/96,25.45864578,1.861295244,22.1,29.83,96,0
VAAM,1/29/96,24.90385423,1.602067283,20.9,27.05,96,0
VAAM,1/30/96,21.97395829,1.009350563,20.2,24.5,96,0
VAAM,1/31/96,22.92937503,1.763018259,19.1,25.92,96,0
VAAM,2/1/96,23.93437511,2.043723584,20.5,28.5,96,0
VAAM,2/2/96,25.58572912,4.012665407,18.9,36.7,96,0
VAAM,2/3/96,34.95447908,8.583510239,25.4,61.58,96,0
VAAM,2/4/96,34.06354159,9.863296181,22.1,59.1,96,0
VAAM,2/5/96,30.10729162,7.534583251,24,54,96,0
VAAM,2/6/96,29.94552074,7.564335173,22,51.06,96,0